Location: Lakeview Terrace
(41.4931°N, 81.7101°W)
Time: 19:46:59
(UTC+00:00)

Helios 1A Rocket - Pass Details

Date: 29 October 2020
Orbit: 563 x 586 km, 98.3° (Epoch: 02 December)

Event Time Altitude Azimuth Distance (km) Brightness Sun altitude
Rises 23:35:44 0° 156° (SSE) 2,793 6.2 -13.8°
Reaches altitude 10° 23:37:54 10° 152° (SSE) 1,895 5.3 -14.2°
Maximum altitude 23:41:56 58° 74° (ENE) 682 2.9 -15.0°
Drops below altitude 10° 23:45:58 10° 355° (N) 1,897 5.6 -15.7°
Sets 23:48:08 0° 351° (N) 2,796 6.5 -16.1°
